FW3096 Weather Reports


Display with metric or nautical units.
time (UTC)temp
F
wind
direction
speed
MPH
gust
MPH
rain 1hr
in
rain 24hr
in
rain mn
in
humidity
%
barometer
mb
20260503032508 50 295 0.0 7.0 0.00 0.00 0.00 58 1013.4
20260503032010 50 295 0.0 5.0 0.00 0.00 0.00 57 1013.3
20260503031508 50 292 1.0 6.0 0.00 0.00 0.00 57 1013.3
20260503031008 50 299 2.0 4.0 0.00 0.00 0.00 57 1013.3
20260503030509 50 288 1.0 4.0 0.00 0.00 0.00 57 1013.2
20260503030009 50 265 2.0 5.0 0.00 0.00 0.00 57 1013.2
20260503025507 50 318 2.0 5.0 0.00 0.00 0.00 56 1013.1
20260503024507 50 303 1.0 4.0 0.00 0.00 0.00 56 1013.3
20260503024010 51 330 2.0 4.0 0.00 0.00 0.00 55 1013.1
20260503023009 51 297 1.0 3.0 0.00 0.00 0.00 55 1013.1
20260503022509 51 237 1.0 3.0 0.00 0.00 0.00 54 1013.1
20260503021507 51 307 2.0 4.0 0.00 0.00 0.00 54 1013.3
20260503021010 51 288 0.0 5.0 0.00 0.00 0.00 54 1013.3
20260503020507 51 288 2.0 5.0 0.00 0.00 0.00 53 1013.4
20260503020008 51 294 1.0 4.0 0.00 0.00 0.00 53 1013.2
20260503015509 52 291 0.0 5.0 0.00 0.00 0.00 53 1013.3
20260503015008 52 281 1.0 6.0 0.00 0.00 0.00 53 1013.3
20260503014508 52 313 2.0 6.0 0.00 0.00 0.00 53 1013.4
20260503014010 52 315 2.0 4.0 0.00 0.00 0.00 53 1013.3
20260503013508 52 286 1.0 4.0 0.00 0.00 0.00 52 1013.3
20260503013009 52 300 0.0 1.0 0.00 0.00 0.00 52 1013.2
20260503012509 52 300 0.0 4.0 0.00 0.00 0.00 52 1013.2
20260503012025 52 300 1.0 4.0 0.00 0.00 0.00 52 1013.2
20260503011508 52 301 0.0 0.0 0.00 0.00 0.00 52 1013.2
20260503011010 52 301 0.0 2.0 0.00 0.00 0.00 52 1013.2
20260503010507 52 301 0.0 3.0 0.00 0.00 0.00 51 1013.1
20260503010009 52 301 1.0 2.0 0.00 0.00 0.00 51 1012.9
20260503005509 53 301 1.0 3.0 0.00 0.00 0.00 51 1012.8
20260503005008 53 301 0.0 2.0 0.00 0.00 0.00 51 1013.0
20260503004507 53 301 0.0 3.0 0.00 0.00 0.00 50 1012.9
20260503004010 52 301 1.0 3.0 0.00 0.00 0.00 50 1012.8
20260503003507 52 275 0.0 3.0 0.00 0.00 0.00 50 1012.8
20260503003012 53 275 0.0 3.0 0.00 0.00 0.00 50 1012.8
20260503002507 52 303 1.0 3.0 0.00 0.00 0.00 50 1012.6
20260503002008 53 303 0.0 1.0 0.00 0.00 0.00 49 1012.7
20260503001509 53 303 0.0 5.0 0.00 0.00 0.00 49 1012.6
20260503000508 54 282 1.0 2.0 0.00 0.00 0.00 47 1012.6
20260503000010 54 282 1.0 2.0 0.00 0.00 0.00 48 1012.5
20260502235507 54 282 1.0 2.0 0.00 0.00 0.00 48 1012.5
20260502234509 55 268 0.0 5.0 0.00 0.00 0.00 47 1012.5
20260502234008 55 323 3.0 5.0 0.00 0.00 0.00 46 1012.3
20260502233508 55 330 2.0 5.0 0.00 0.00 0.00 46 1012.3
20260502233010 55 360 0.0 2.0 0.00 0.00 0.00 47 1012.2
20260502231509 55 338 1.0 5.0 0.00 0.00 0.00 45 1012.2
20260502231008 56 10 1.0 5.0 0.00 0.00 0.00 45 1012.2
20260502230507 56 306 1.0 4.0 0.00 0.00 0.00 45 1012.3
20260502230010 56 274 1.0 4.0 0.00 0.00 0.00 45 1012.3
20260502225507 56 311 1.0 3.0 0.00 0.00 0.00 45 1012.3
20260502225008 56 328 0.0 6.0 0.00 0.00 0.00 45 1012.3
20260502224509 56 332 2.0 6.0 0.00 0.00 0.00 44 1012.3
20260502224009 56 300 2.0 8.0 0.00 0.00 0.00 45 1012.3
20260502223507 57 315 3.0 8.0 0.00 0.00 0.00 44 1012.3
20260502222506 58 321 3.0 10.0 0.00 0.00 0.00 43 1012.2
20260502222009 58 333 2.0 13.0 0.00 0.00 0.00 45 1011.9
20260502221507 58 331 6.0 13.0 0.00 0.00 0.00 43 1012.0
20260502221007 58 56 1.0 7.0 0.00 0.00 0.00 45 1011.9
20260502220009 58 304 1.0 8.0 0.00 0.00 0.00 45 1012.0
20260502215506 58 192 2.0 11.0 0.00 0.00 0.00 44 1012.0
20260502215008 58 12 2.0 11.0 0.00 0.00 0.00 45 1012.0
20260502214007 57 286 2.0 5.0 0.00 0.00 0.00 44 1011.9
20260502213508 57 320 3.0 5.0 0.00 0.00 0.00 45 1012.0
20260502212507 58 327 1.0 9.0 0.00 0.00 0.00 47 1012.0
20260502212009 58 355 3.0 9.0 0.00 0.00 0.00 45 1011.9
20260502211506 58 346 2.0 7.0 0.00 0.00 0.00 47 1011.8
20260502211007 58 311 2.0 9.0 0.00 0.00 0.00 45 1011.8
20260502205506 58 325 2.0 6.0 0.00 0.00 0.00 48 1011.6
20260502204507 58 288 5.0 10.0 0.00 0.00 0.00 44 1011.6
20260502204007 58 323 5.0 10.0 0.00 0.00 0.00 43 1011.6
20260502203508 59 335 4.0 9.0 0.00 0.00 0.00 46 1011.7
20260502203007 59 344 4.0 7.0 0.00 0.00 0.00 45 1011.7
20260502202506 60 340 1.0 5.0 0.00 0.00 0.00 45 1011.6
20260502202009 59 199 2.0 5.0 0.00 0.00 0.00 44 1011.7
20260502201506 59 360 2.0 10.0 0.00 0.00 0.00 46 1011.7
20260502201008 59 328 6.0 10.0 0.00 0.00 0.00 45 1011.8
20260502200508 58 292 3.0 8.0 0.00 0.00 0.00 47 1011.7
20260502195506 59 342 2.0 5.0 0.00 0.00 0.00 45 1011.8
20260502194507 60 317 4.0 8.0 0.00 0.00 0.00 46 1012.0
20260502194007 60 286 4.0 8.0 0.00 0.00 0.00 44 1011.9
20260502193507 60 338 3.0 9.0 0.00 0.00 0.00 48 1012.1
20260502193009 60 273 5.0 9.0 0.00 0.00 0.00 44 1012.1
20260502192506 60 332 3.0 11.0 0.00 0.00 0.00 47 1012.2
20260502191507 59 301 2.0 5.0 0.00 0.00 0.00 49 1012.4
20260502191008 58 339 1.0 8.0 0.00 0.00 0.00 50 1012.5
20260502190508 57 355 1.0 8.0 0.00 0.00 0.00 50 1012.7
20260502190008 58 294 5.0 9.0 0.00 0.00 0.00 49 1012.8
20260502185507 59 346 3.0 9.0 0.00 0.00 0.00 47 1012.9
20260502185008 59 313 2.0 5.0 0.00 0.00 0.00 50 1012.9
20260502184507 60 46 2.0 9.0 0.00 0.00 0.00 49 1012.9
20260502184008 58 31 3.0 9.0 0.00 0.00 0.00 47 1013.0
20260502183507 59 304 4.0 8.0 0.00 0.00 0.00 43 1013.1
20260502183008 60 286 4.0 9.0 0.00 0.00 0.00 46 1013.1
20260502182007 59 329 3.0 12.0 0.00 0.00 0.00 47 1013.4
20260502181507 60 267 3.0 10.0 0.00 0.00 0.00 48 1013.4
20260502181009 60 327 1.0 12.0 0.00 0.00 0.00 49 1013.3
20260502170506 57 26 5.0 11.0 0.00 0.00 0.00 55 1013.5
20260502164007 57 319 3.0 16.0 0.00 0.00 0.00 54 1013.8
20260502163506 57 71 1.0 7.0 0.00 0.00 0.00 57 1014.0
20260502163009 57 334 3.0 7.0 0.00 0.00 0.00 53 1013.9
20260502162506 57 323 2.0 6.0 0.00 0.00 0.00 54 1014.0
20260502161508 57 256 3.0 9.0 0.00 0.00 0.00 54 1014.2
20260502160507 56 292 3.0 9.0 0.00 0.00 0.00 54 1014.3
20260502152009 54 335 3.0 6.0 0.00 0.00 0.00 57 1014.2
20260502151507 54 113 2.0 6.0 0.00 0.00 0.00 63 1014.3
20260502151007 54 335 1.0 6.0 0.00 0.00 0.00 62 1014.3
20260502130506 50 291 2.0 8.0 0.00 0.00 0.00 79 1014.3
20260502123506 50 324 2.0 5.0 0.00 0.00 0.00 79 1014.3
20260502123007 50 321 3.0 5.0 0.00 0.00 0.00 79 1014.3
20260502122507 50 335 2.0 6.0 0.00 0.00 0.00 79 1014.3
20260502122007 50 355 3.0 10.0 0.00 0.00 0.00 80 1014.3
20260502121507 50 332 5.0 10.0 0.00 0.00 0.00 80 1014.2
20260502121009 50 26 3.0 8.0 0.00 0.00 0.00 81 1014.1
20260502120506 50 289 3.0 7.0 0.00 0.00 0.00 82 1014.0
20260502115508 50 345 2.0 6.0 0.00 0.00 0.00 82 1013.8
20260502115007 50 291 1.0 6.0 0.00 0.00 0.00 83 1013.8
20260502113506 50 343 0.0 6.0 0.00 0.00 0.00 83 1013.8
20260502113009 49 291 1.0 9.0 0.00 0.00 0.00 83 1013.8
20260502112506 49 287 1.0 6.0 0.00 0.00 0.00 83 1013.8
20260502112007 49 298 2.0 6.0 0.00 0.00 0.00 83 1013.9
20260502111508 49 301 2.0 8.0 0.00 0.00 0.00 83 1013.8
20260502111007 49 302 4.0 10.0 0.00 0.00 0.00 83 1013.7
20260502110009 49 297 4.0 6.0 0.00 0.00 0.00 84 1013.7
20260502105506 49 282 3.0 6.0 0.00 0.00 0.00 85 1013.6
20260502105007 49 296 2.0 5.0 0.00 0.00 0.00 85 1013.5
20260502104009 49 311 2.0 8.0 0.00 0.00 0.00 86 1013.4
20260502103506 49 184 0.0 3.0 0.00 0.00 0.00 86 1013.3
20260502103007 49 314 1.0 4.0 0.00 0.00 0.00 86 1013.1
20260502102508 49 300 2.0 4.0 0.00 0.00 0.00 86 1013.1
20260502101506 49 298 1.0 4.0 0.00 0.00 0.00 86 1013.1
20260502101009 49 292 1.0 4.0 0.00 0.00 0.00 86 1013.0
20260502100507 49 301 2.0 4.0 0.00 0.00 0.00 86 1013.1
20260502091506 50 302 0.0 0.0 0.00 0.00 0.00 84 1013.3
20260502090506 50 302 0.0 0.0 0.00 0.00 0.00 84 1013.3
20260502071506 51 355 0.0 0.0 0.00 0.00 0.00 80 1012.8
20260502071008 51 355 0.0 0.0 0.00 0.00 0.00 81 1012.8
20260502070507 51 355 0.0 4.0 0.00 0.00 0.00 81 1012.8
20260502070008 51 355 0.0 4.0 0.00 0.00 0.00 81 1013.0
20260502065507 51 281 0.0 0.0 0.00 0.00 0.00 82 1013.0
20260502064506 51 254 0.0 0.0 0.00 0.00 0.00 83 1013.0
20260502063506 51 254 0.0 0.0 0.00 0.00 0.00 83 1013.0
20260502063006 51 254 0.0 0.0 0.00 0.00 0.00 83 1013.1
20260502062507 51 254 0.0 0.0 0.00 0.00 0.00 83 1013.1
20260502062006 51 254 0.0 0.0 0.00 0.00 0.00 83 1013.1
20260502061506 51 254 0.0 0.0 0.00 0.00 0.00 83 1013.1
20260502061008 51 254 0.0 0.0 0.00 0.00 0.00 83 1013.0
20260502060505 51 254 0.0 0.0 0.00 0.00 0.00 83 1013.1
20260502060006 51 254 0.0 0.0 0.00 0.00 0.00 83 1013.1
20260502055006 51 254 0.0 0.0 0.00 0.00 0.00 83 1013.2
20260502054505 51 254 0.0 0.0 0.00 0.00 0.00 84 1013.3
20260502054007 51 254 0.0 0.0 0.00 0.00 0.00 84 1013.3
20260502053505 51 254 0.0 0.0 0.00 0.00 0.00 84 1013.3
20260502053007 51 254 0.0 0.0 0.00 0.00 0.00 84 1013.4
20260502052507 51 254 0.0 0.0 0.00 0.00 0.00 83 1013.5
20260502052006 51 254 0.0 0.0 0.00 0.00 0.00 83 1013.5
20260502051506 51 254 0.0 0.0 0.00 0.00 0.00 83 1013.4
20260502051008 51 175 0.0 0.0 0.00 0.00 0.00 83 1013.2
20260502050506 51 175 0.0 0.0 0.00 0.00 0.00 83 1013.3
20260502050015 51 175 0.0 0.0 0.00 0.00 0.00 82 1013.4
20260502045506 51 175 0.0 0.0 0.00 0.00 0.00 82 1013.5
20260502045007 51 175 0.0 0.0 0.00 0.00 0.00 82 1013.4
20260502044508 51 175 0.0 0.0 0.00 0.00 0.00 82 1013.4
20260502044007 51 175 0.0 0.0 0.00 0.00 0.00 82 1013.4
20260502043009 51 175 0.0 0.0 0.00 0.00 0.00 81 1013.5
20260502042506 51 175 0.0 0.0 0.00 0.00 0.00 81 1013.5
20260502042007 51 175 0.0 0.0 0.00 0.00 0.00 81 1013.3
20260502041007 51 175 0.0 0.0 0.00 0.00 0.00 80 1013.3
20260502040506 52 175 0.0 0.0 0.00 0.00 0.00 80 1013.3
20260502035507 52 175 0.0 0.0 0.00 0.00 0.00 79 1013.3
20260502035008 52 175 0.0 0.0 0.00 0.00 0.00 79 1013.3
20260502034508 52 175 0.0 0.0 0.00 0.00 0.00 79 1013.2
20260502034008 52 175 0.0 0.0 0.00 0.00 0.00 79 1013.1
20260502033507 52 175 0.0 0.0 0.00 0.00 0.00 78 1013.2
20260502033010 52 175 0.0 0.0 0.00 0.00 0.00 78 1013.1